Tunica, MS

2:47 AM CDT on May 25, 2017 (GMT -0500)
Tunica

Weather History for KUTA - January, 2014

Change the Weather History Date:

Tuesday, January 21, 2014

  Actual Average (KAWM) Record (KAWM)
Temperature  
Mean Temperature 36 °F -  
Max Temperature 48 °F 46 °F 70 °F (1965)
Min Temperature 23 °F 28 °F -9 °F (1985)
Degree Days  
Heating Degree Days 30    
Moisture  
Dew Point 21 °F    
Average Humidity 61    
Maximum Humidity 80    
Minimum Humidity 48    
Precipitation  
Precipitation 0.00 in - - ()
Sea Level Pressure  
Sea Level Pressure 30.20 in    
Wind  
Wind Speed 17 mph (NNW)    
Max Wind Speed 26 mph    
Max Gust Speed 39 mph    
Visibility 10 miles    
Events      
Averages and records for this station are not official NWS values.
T = Trace of Precipitation, MM = Missing Value Source: NWS Daily Summary

Daily Weather History Graph

Daily Weather History Graph

Search for Another Location

Airport or City:

Trip Planner

Search our weather history database for the weather conditions in past years. The results will help you decide how hot, cold, wet, or windy it might be!

Date:

Astronomy

Jan. 21, 2014 Rise Set
Actual Time 7:06 AM CST 5:19 PM CST
Civil Twilight 6:39 AM CST 5:46 PM CST
Nautical Twilight 6:08 AM CST 6:17 PM CST
Astronomical Twilight 5:38 AM CST 6:47 PM CST
Moon 10:37 PM CST (1/21) 9:50 AM CST (1/21)
Length of Visible Light 11h 07m
Length of Day
10h 13m
Waning Gibbous, 74% of the Moon is Illuminated
Jan 21
Waning Gibbous
Jan 23
Last Quarter
Jan 30
New
Feb 6
First Quarter
Feb 14
Full

Hourly Weather History & Observations

Time (CST) Temp. Windchill Dew Point Humidity Pressure Visibility Wind Dir Wind Speed Gust Speed Precip Events Conditions
12:15 AM 48.2 °F - 32.0 °F 54% 29.95 in 10.0 mi NNW 21.9 mph 28.8 mph N/A   Clear
12:35 AM 46.4 °F 39.2 °F 32.0 °F 57% 29.97 in 10.0 mi NNW 18.4 mph 25.3 mph N/A   Clear
12:55 AM 46.4 °F 39.2 °F 32.0 °F 57% 29.98 in 10.0 mi NNW 18.4 mph 25.3 mph N/A   Clear
1:15 AM 46.4 °F 39.2 °F 32.0 °F 57% 29.98 in 10.0 mi NNW 18.4 mph - N/A   Clear
1:35 AM 46.4 °F 39.8 °F 32.0 °F 57% 29.98 in 10.0 mi NW 16.1 mph - N/A   Clear
1:55 AM 46.4 °F 40.4 °F 32.0 °F 57% 29.99 in 10.0 mi NW 13.8 mph 20.7 mph N/A   Clear
2:15 AM 44.6 °F 38.4 °F 32.0 °F 61% 29.99 in 10.0 mi NW 12.7 mph - N/A   Clear
2:35 AM 42.8 °F 37.5 °F 32.0 °F 66% 30.00 in 10.0 mi NW 9.2 mph - N/A   Clear
2:55 AM 41.0 °F 36.4 °F 32.0 °F 70% 30.00 in 10.0 mi WNW 6.9 mph - N/A   Clear
3:15 AM 39.2 °F 33.0 °F 32.0 °F 75% 30.00 in 10.0 mi NW 9.2 mph - N/A   Clear
3:35 AM 41.0 °F 35.2 °F 32.0 °F 70% 30.00 in 10.0 mi NW 9.2 mph - N/A   Clear
3:55 AM 37.4 °F 32.1 °F 30.2 °F 75% 30.00 in 10.0 mi WNW 6.9 mph - N/A   Clear
4:15 AM 37.4 °F 31.4 °F 30.2 °F 75% 30.01 in 10.0 mi WNW 8.1 mph - N/A   Clear
4:35 AM 42.8 °F 35.1 °F 28.4 °F 57% 30.02 in 10.0 mi NW 16.1 mph 19.6 mph N/A   Clear
4:55 AM 42.8 °F 34.8 °F 28.4 °F 57% 30.04 in 10.0 mi NW 17.3 mph 21.9 mph N/A   Clear
5:15 AM 41.0 °F 30.7 °F 26.6 °F 57% 30.05 in 10.0 mi NW 25.3 mph 32.2 mph N/A   Clear
5:35 AM 41.0 °F 31.1 °F 24.8 °F 53% 30.06 in 10.0 mi NW 23.0 mph 29.9 mph N/A   Clear
5:55 AM 39.2 °F 28.5 °F 24.8 °F 56% 30.08 in 10.0 mi NW 24.2 mph 31.1 mph N/A   Clear
6:15 AM 35.6 °F 23.2 °F 21.2 °F 56% 30.10 in 10.0 mi NW 26.5 mph 39.1 mph N/A   Clear
6:35 AM 35.6 °F 23.7 °F 21.2 °F 56% 30.12 in 10.0 mi NW 24.2 mph 32.2 mph N/A   Clear
6:55 AM 33.8 °F 21.0 °F 21.2 °F 60% 30.13 in 10.0 mi NW 25.3 mph 33.4 mph N/A   Clear
7:15 AM 33.8 °F 21.3 °F 21.2 °F 60% 30.14 in 10.0 mi NW 24.2 mph 34.5 mph N/A   Clear
7:35 AM 33.8 °F 21.0 °F 21.2 °F 60% 30.15 in 10.0 mi NW 25.3 mph 33.4 mph N/A   Clear
7:55 AM 33.8 °F 21.0 °F 21.2 °F 60% 30.16 in 10.0 mi NW 25.3 mph 28.8 mph N/A   Scattered Clouds
8:15 AM 35.6 °F 23.7 °F 23.0 °F 60% 30.18 in 10.0 mi NNW 24.2 mph 33.4 mph N/A   Mostly Cloudy
8:35 AM 33.8 °F 20.8 °F 19.4 °F 56% 30.20 in 10.0 mi NNW 26.5 mph 39.1 mph N/A   Mostly Cloudy
8:55 AM 32.0 °F 18.6 °F 21.2 °F 64% 30.22 in 10.0 mi NNW 25.3 mph 39.1 mph N/A   Mostly Cloudy
9:15 AM 32.0 °F 18.6 °F 21.2 °F 64% 30.25 in 10.0 mi NNW 25.3 mph 39.1 mph N/A   Overcast
9:35 AM 32.0 °F 19.5 °F 19.4 °F 60% 30.27 in 10.0 mi NNW 21.9 mph 32.2 mph N/A   Overcast
9:55 AM 32.0 °F 18.6 °F 19.4 °F 60% 30.28 in 10.0 mi NNW 25.3 mph 28.8 mph N/A   Overcast
10:15 AM 32.0 °F 18.9 °F 17.6 °F 55% 30.29 in 10.0 mi North 24.2 mph 29.9 mph N/A   Mostly Cloudy
10:35 AM 32.0 °F 18.9 °F 17.6 °F 55% 30.30 in 10.0 mi NNW 24.2 mph 31.1 mph N/A   Overcast
10:55 AM 32.0 °F 19.2 °F 17.6 °F 55% 30.30 in 10.0 mi NNW 23.0 mph 29.9 mph N/A   Overcast
11:15 AM 32.0 °F 19.2 °F 19.4 °F 60% 30.30 in 10.0 mi North 23.0 mph 26.5 mph N/A   Overcast
11:35 AM 32.0 °F 19.5 °F 17.6 °F 55% 30.30 in 10.0 mi NNW 21.9 mph - N/A   Overcast
11:55 AM 32.0 °F 20.8 °F 17.6 °F 55% 30.29 in 10.0 mi North 17.3 mph 24.2 mph N/A   Overcast
12:15 PM 32.0 °F 20.1 °F 17.6 °F 55% 30.29 in 10.0 mi NNW 19.6 mph 25.3 mph N/A   Overcast
12:35 PM 32.0 °F 21.2 °F 17.6 °F 55% 30.29 in 10.0 mi NNW 16.1 mph 26.5 mph N/A   Overcast
12:55 PM 32.0 °F 20.1 °F 15.8 °F 51% 30.28 in 10.0 mi NNW 19.6 mph 27.6 mph N/A   Overcast
1:15 PM 32.0 °F 20.8 °F 15.8 °F 51% 30.28 in 10.0 mi North 17.3 mph 23.0 mph N/A   Overcast
1:35 PM 32.0 °F 20.5 °F 17.6 °F 55% 30.28 in 10.0 mi NNW 18.4 mph 25.3 mph N/A   Overcast
1:55 PM 32.0 °F 19.8 °F 15.8 °F 51% 30.28 in 10.0 mi North 20.7 mph 24.2 mph N/A   Overcast
2:15 PM 32.0 °F 20.5 °F 15.8 °F 51% 30.27 in 10.0 mi NNW 18.4 mph 23.0 mph N/A   Overcast
2:35 PM 32.0 °F 20.8 °F 15.8 °F 51% 30.27 in 10.0 mi NNW 17.3 mph 25.3 mph N/A   Overcast
2:55 PM 32.0 °F 22.1 °F 15.8 °F 51% 30.28 in 10.0 mi NNW 13.8 mph - N/A   Overcast
3:15 PM 32.0 °F 20.5 °F 14.0 °F 48% 30.29 in 10.0 mi NNW 18.4 mph 23.0 mph N/A   Mostly Cloudy
3:35 PM 32.0 °F 21.2 °F 14.0 °F 48% 30.29 in 10.0 mi North 16.1 mph 23.0 mph N/A   Scattered Clouds
3:55 PM 32.0 °F 21.6 °F 14.0 °F 48% 30.29 in 10.0 mi NNW 15.0 mph - N/A   Scattered Clouds
4:15 PM 30.2 °F 19.3 °F 14.0 °F 51% 30.29 in 10.0 mi NNW 15.0 mph - N/A   Scattered Clouds
4:35 PM 30.2 °F 18.9 °F 14.0 °F 51% 30.30 in 10.0 mi North 16.1 mph 19.6 mph N/A   Clear
4:55 PM 30.2 °F 19.8 °F 14.0 °F 51% 30.30 in 10.0 mi North 13.8 mph - N/A   Scattered Clouds
5:15 PM 30.2 °F 20.2 °F 14.0 °F 51% 30.30 in 10.0 mi North 12.7 mph - N/A   Clear
5:35 PM 28.4 °F 19.7 °F 14.0 °F 55% 30.30 in 10.0 mi North 9.2 mph - N/A   Clear
5:55 PM 28.4 °F 21.2 °F 17.6 °F 64% 30.31 in 10.0 mi NNE 6.9 mph - N/A   Clear
6:15 PM 28.4 °F 20.4 °F 17.6 °F 64% 30.30 in 10.0 mi NNE 8.1 mph - N/A   Clear
6:35 PM 28.4 °F 19.7 °F 15.8 °F 59% 30.30 in 10.0 mi NNE 9.2 mph - N/A   Clear
6:55 PM 26.6 °F 18.2 °F 15.8 °F 64% 30.29 in 10.0 mi NNE 8.1 mph - N/A   Clear
7:15 PM 26.6 °F 19.1 °F 15.8 °F 64% 30.28 in 10.0 mi NNE 6.9 mph - N/A   Clear
7:35 PM 26.6 °F 20.0 °F 15.8 °F 64% 30.29 in 10.0 mi NNE 5.8 mph - N/A   Clear
7:55 PM 24.8 °F 19.1 °F 15.8 °F 69% 30.29 in 10.0 mi North 4.6 mph - N/A   Clear
8:15 PM 23.0 °F 17.0 °F 17.6 °F 80% 30.29 in 10.0 mi North 4.6 mph - N/A   Clear
8:35 PM 23.0 °F 17.0 °F 17.6 °F 80% 30.29 in 10.0 mi NNE 4.6 mph - N/A   Clear
8:55 PM 24.8 °F 20.5 °F 17.6 °F 74% 30.29 in 10.0 mi NNE 3.5 mph - N/A   Clear
9:15 PM 23.0 °F 18.4 °F 17.6 °F 80% 30.29 in 10.0 mi NE 3.5 mph - N/A   Clear
9:35 PM 23.0 °F 17.0 °F 17.6 °F 80% 30.30 in 10.0 mi NE 4.6 mph - N/A   Clear
9:55 PM 24.8 °F 17.9 °F 17.6 °F 74% 30.29 in 10.0 mi ENE 5.8 mph - N/A   Clear
10:15 PM 24.8 °F 17.9 °F 17.6 °F 74% 30.28 in 10.0 mi ENE 5.8 mph - N/A   Clear
10:35 PM 24.8 °F 17.9 °F 15.8 °F 69% 30.28 in 10.0 mi ENE 5.8 mph - N/A   Clear
10:55 PM 23.0 °F 17.0 °F 15.8 °F 74% 30.28 in 10.0 mi ENE 4.6 mph - N/A   Clear
11:15 PM 23.0 °F 15.8 °F 15.8 °F 74% 30.27 in 10.0 mi ENE 5.8 mph - N/A   Clear
11:35 PM 23.0 °F 17.0 °F 15.8 °F 74% 30.27 in 10.0 mi East 4.6 mph - N/A   Clear
11:55 PM 23.0 °F 18.4 °F 14.0 °F 68% 30.27 in 10.0 mi ESE 3.5 mph - N/A   Clear